Location: Henham
(51.9333°N, 0.2500°E)
Time: 13:14:40
(UTC+00:00)

Cosmos 1939 Rocket - Pass Details

Date: 23 October 2019
Orbit: 533 x 584 km, 97.4° (Epoch: 18 November)

Event Time Altitude Azimuth Distance (km) Brightness Sun altitude
Rises 17:46:21 0° 135° (SE) 2,749 6.0 -9.5°
Reaches altitude 10° 17:48:40 10° 124° (SE) 1,866 5.1 -9.8°
Maximum altitude 17:52:08 28° 65° (ENE) 1,087 3.8 -10.4°
Drops below altitude 10° 17:55:41 10° 6° (N) 1,902 5.5 -10.9°
Sets 17:58:04 0° 355° (N) 2,812 6.5 -11.3°
